DW6873 Weather Reports


Display with metric or nautical units.
time (UTC)temp
F
wind
direction
speed
MPH
gust
MPH
rain 1hr
in
rain 24hr
in
rain mn
in
humidity
%
barometer
mb
20260506134556 36 319 0.0 0.0 0.00 0.00 0.00 61 1019.4
20260506133128 37 265 0.0 0.0 0.00 0.00 0.00 67 1019.4
20260506131553 31 265 0.0 0.0 0.00 0.00 0.00 76 1019.3
20260506130133 28 264 0.0 0.0 0.00 0.00 0.00 78 1019.3
20260506124551 27 264 0.0 0.0 0.00 0.00 0.00 79 1019.2
20260506123048 27 264 0.0 0.0 0.00 0.00 0.00 80 1019.0
20260506121551 0 0.0 0.0 0.00 0.00 0.00 1018.8
20260506120022 0 0.0 0.0 0.00 0.00 0.00 1018.6
20260506114512 0 0.0 0.0 0.00 0.00 0.00 1018.5
20260506113059 0 0.0 0.0 0.00 0.00 0.00 1018.5
20260506111555 0 0.0 0.0 0.00 0.00 0.00 1018.6
20260506110049 0 0.0 0.0 0.00 0.00 0.00 1018.5
20260506104554 26 158 0.0 0.0 0.00 0.00 0.00 85 1018.5
20260506103043 23 162 0.0 0.0 0.00 0.00 0.00 88 1018.5
20260506101542 21 162 0.0 0.0 0.00 0.00 0.00 88 1018.7
20260506100053 20 162 0.0 0.0 0.00 0.00 0.00 89 1018.6
20260506094543 18 162 0.0 0.0 0.00 0.00 0.00 89 1018.7
20260506093009 17 162 0.0 0.0 0.00 0.00 0.00 87 1018.6
20260506091509 16 162 0.0 0.0 0.00 0.00 0.00 86 1018.6
20260506090003 16 162 0.0 0.0 0.00 0.00 0.00 85 1018.4
20260506084501 17 162 0.0 0.0 0.00 0.00 0.00 84 1018.4
20260506081609 18 166 0.0 0.0 0.00 0.00 0.00 85 1018.3
20260506073053 19 165 0.0 0.0 0.00 0.00 0.00 84 1018.1
20260506071551 19 217 0.0 0.0 0.00 0.00 0.00 85 1018.2
20260506061543 25 153 0.0 0.0 0.00 0.00 0.00 79 1017.9
20260506044517 27 35 0.0 0.0 0.00 0.00 0.00 71 1017.6
20260506043015 28 35 0.0 0.0 0.00 0.00 0.00 71 1017.5
20260506041513 28 35 0.0 0.0 0.00 0.00 0.00 70 1017.6
20260506040008 30 35 0.0 0.0 0.00 0.00 0.00 68 1017.3
20260506034504 31 35 0.0 0.0 0.00 0.00 0.00 66 1017.2
20260506033059 32 35 0.0 0.0 0.00 0.00 0.00 63 1017.1
20260506031558 34 35 0.0 0.0 0.00 0.00 0.00 60 1017.0
20260506030051 35 329 0.0 0.0 0.00 0.00 0.00 58 1016.9
20260506024551 35 329 0.0 0.0 0.00 0.00 0.00 57 1016.7
20260506023053 36 354 0.0 0.0 0.00 0.00 0.00 54 1016.5
20260506021542 36 316 0.0 0.0 0.00 0.00 0.00 55 1016.4
20260506020038 37 348 0.0 0.0 0.00 0.00 0.00 52 1016.3
20260506014533 38 354 0.0 0.0 0.00 0.00 0.00 50 1016.1
20260506013033 39 348 0.0 0.0 0.00 0.00 0.00 49 1016.0
20260506011528 40 353 0.0 0.0 0.00 0.00 0.00 48 1015.8
20260506010047 40 323 0.0 0.0 0.00 0.00 0.00 47 1015.7
20260506004524 40 333 0.0 0.0 0.00 0.00 0.00 47 1015.7
20260506003024 40 328 0.0 1.0 0.00 0.00 0.00 46 1015.5
20260506001523 40 326 0.0 0.0 0.00 0.00 0.00 45 1015.6
20260506000023 40 338 0.0 1.0 0.00 0.00 0.00 46 1015.6
20260505234520 40 317 0.0 1.0 0.00 0.00 0.00 45 1015.6
20260505233018 41 322 0.0 2.0 0.00 0.00 0.00 46 1015.6
20260505231517 40 333 0.0 1.0 0.00 0.00 0.00 46 1015.5
20260505230023 40 333 0.0 1.0 0.00 0.00 0.00 45 1015.5
20260505224545 40 328 0.0 1.0 0.00 0.00 0.00 45 1015.5
20260505223046 41 347 0.0 1.0 0.00 0.00 0.00 45 1015.5
20260505221540 41 321 0.0 1.0 0.00 0.00 0.00 46 1015.5
20260505220039 41 340 0.0 1.0 0.00 0.00 0.00 45 1015.4
20260505214538 41 331 0.0 1.0 0.00 0.00 0.00 45 1015.4
20260505213037 41 325 0.0 1.0 0.00 0.00 0.00 46 1015.4
20260505211535 41 320 0.0 4.0 0.00 0.00 0.00 46 1015.4
20260505210034 41 327 0.0 1.0 0.00 0.00 0.00 45 1015.3
20260505204531 41 314 0.0 4.0 0.00 0.00 0.00 45 1015.4
20260505203036 41 331 0.0 1.0 0.00 0.00 0.00 46 1015.3
20260505201528 41 317 0.0 12.0 0.00 0.00 0.00 45 1015.3
20260505200031 41 344 0.0 6.0 0.00 0.00 0.00 47 1015.3
20260505194526 40 298 0.0 2.0 0.00 0.00 0.00 45 1015.2
20260505193024 41 325 0.0 2.0 0.00 0.00 0.00 46 1015.0
20260505191522 40 316 0.0 2.0 0.00 0.00 0.00 46 1014.9
20260505190030 40 326 0.0 2.0 0.00 0.00 0.00 47 1014.8
20260505184521 40 319 0.0 4.0 0.00 0.00 0.00 47 1014.8
20260505183020 41 352 0.0 11.0 0.00 0.00 0.00 46 1014.8
20260505181518 41 345 0.0 9.0 0.00 0.00 0.00 45 1014.7
20260505180016 40 298 0.0 4.0 0.00 0.00 0.00 45 1014.9
20260505174514 40 320 0.0 10.0 0.00 0.00 0.00 44 1014.8
20260505173014 40 301 0.0 12.0 0.00 0.00 0.00 45 1015.0
20260505171612 40 327 0.0 10.0 0.00 0.00 0.00 45 1015.0
20260505170039 40 323 0.0 3.0 0.00 0.00 0.00 47 1014.9
20260505164535 39 331 0.0 8.0 0.00 0.00 0.00 49 1014.8
20260505163031 38 334 0.0 9.0 0.00 0.00 0.00 50 1014.8
20260505161531 38 338 0.0 2.0 0.00 0.00 0.00 52 1014.6
20260505161529 38 344 0.0 2.0 0.00 0.00 0.00 52 1014.6
20260505153025 37 336 0.0 3.0 0.00 0.00 0.00 52 1014.5
20260505151531 37 322 0.0 5.0 0.00 0.00 0.00 56 1014.6